Regional Weather Roundup
Issued by NWS Albany, NY

Current Version | Previous Version | Text Only | Print | Product List | Glossary On
Versions: 1 2 3 4 5 6 7 8 9 10 11 12 13 14 15 16 17 18 19 20 21 22 23 24 25 26 27 28 29 30 31 32 33 34 35 36 37 38 39 40 41 42 43 44 45 46 47 48 49 50
000
ASUS41 KALY 170210
RWRALY

NEW YORK STATE HOURLY WEATHER ROUNDUP
NATIONAL WEATHER SERVICE ALBANY NY
900 PM EST MON JAN 16 2017

NOTE: "FAIR" INDICATES FEW OR NO CLOUDS BELOW 12,000 FEET WITH NO
SIGNIFICANT WEATHER AND/OR NO OBSTRUCTIONS TO VISIBILITY.

NYZ032-033-038>043-046>054-057>066-NYZ062>081-082-084-170300-
EAST


CITY           SKY/WX    TMP DP  RH WIND       PRES   REMARKS
ALBANY         CLOUDY    27  19  72 CALM      30.28F
GLENS FALLS    PTCLDY    31  19  61 SW5       30.26S WCI  26
POUGHKEEPSIE   PTCLDY    36  22  56 S5        30.29F WCI  32
NEWBURGH       MOCLDY    36  25  64 W9        30.31S WCI  29
MONTGOMERY     MOCLDY    35  24  64 SW5       30.29S WCI  31
WHITE PLAINS   CLOUDY    37  23  56 CALM      30.31S
ISLIP          CLOUDY    35  32  88 SW6       30.33F WCI  30
NEW YORK CITY  CLOUDY    43  24  47 SW9       30.33S
CENTRAL PARK   CLOUDY    41  24  51 SW12      30.35S
$$

NYZ005>009-017-018-044>046-055-056-170300-
CENTRAL


CITY           SKY/WX    TMP DP  RH WIND       PRES   REMARKS
FULTON         CLEAR     26  21  81 CALM      30.26F
SYRACUSE       CLOUDY    29  20  69 SE3       30.26F
ROME           CLOUDY    24  21  88 CALM      30.29S
ELMIRA         CLOUDY    34  25  69 CALM      30.24F
BINGHAMTON     CLOUDY    33  23  66 S7        30.22F WCI  27
MONTICELLO     CLOUDY    30  23  74 CALM      30.27S
$$

NYZ026>034-041>043-087-170300-
NORTH


CITY           SKY/WX    TMP DP  RH WIND       PRES   REMARKS
WATERTOWN      PTCLDY    25  21  85 CALM      30.26S
FORT DRUM      NOT AVBL
OGDENSBURG     FAIR      31  27  86 SW5       30.23S WCI  26
MASSENA        CLEAR     30  25  81 SW8       30.24R WCI  22
SARANAC LAKE   CLOUDY    24  13  62 SW3       30.17R
PLATTSBURGH    CLEAR     31  20  63 CALM      30.21F
$$

NYZ001>004-010>016-019>021-085-170300-
WEST


CITY           SKY/WX    TMP DP  RH WIND       PRES   REMARKS
NIAGARA FALLS  PTCLDY    35  18  49 CALM      30.24F
BUFFALO        CLOUDY    34  22  61 S3        30.24F
DUNKIRK        MIX PCPN  32  29  88 CALM      30.24F
JAMESTOWN      MOCLDY    34  21  60 SE3       30.21S
WELLSVILLE     LGT RAIN  37  19  48 CALM      30.22S
ROCHESTER      CLOUDY    33  24  69 CALM      30.25F
PENN YAN       CLOUDY    34  22  61 CALM      30.24F
$$

             KEY
       WCI = WIND CHILL INDEX
       VSB = VISIBILITY
       HX  = HEAT INDEX
$$



USA.gov is the U.S. government's official web portal to all federal, state and local government web resources and services.